Regional Weather Roundup
Issued by NWS Jackson, KY

Home | Current Version | Previous Version | Text Only | Print | Product List | Glossary On
Versions: 1 2 3 4 5 6 7 8 9 10 11 12 13 14 15 16 17 18 19 20 21 22 23 24 25 26 27 28 29 30 31 32 33 34 35 36 37 38 39 40 41 42 43 44 45 46 47 48 49 50
000
ASUS43 KJKL 270510
RWRJKL

EAST KENTUCKY HOURLY WEATHER ROUNDUP
NATIONAL WEATHER SERVICE JACKSON KY
100 AM EDT FRI APR 27 2018

NOTE: "FAIR" INDICATES FEW OR NO CLOUDS BELOW 12,000 FEET WITH
NO SIGNIFICANT WEATHER AND/OR OBSTRUCTIONS TO VISIBILITY.

* THESE REPORTS ARE NOT UNDER NWS QUALITY CONTROL AND MAY NOT
  REPORT WEATHER SUCH AS PRECIPITATION AND FOG.

KYZ079-080-083-085-087-088-110-112-115-119-120-270600
...EASTERN KENTUCKY...

CITY           SKY/WX    TMP DP  RH WIND       PRES   REMARKS
JACKSON        LGT RAIN  50  48  93 CALM      29.83F
LONDON         CLOUDY    52  51  97 CALM      29.85F
SOMERSET*      CLOUDY    50  50 100 CALM      29.88F
WILLIAMSBURG*  CLOUDY    50  50 100 CALM      29.86F VSB 1/4
MIDDLESBORO*   CLOUDY    51  51 100 CALM      29.86F
HARLAN APT*    CLOUDY    50  49  97 CALM      29.84F
PIKE CO APT*   FOG       50  50 100 CALM      29.84S VSB 1/2
BIG SANDY APT* CLOUDY    51  51  97 CALM      29.84F
MOREHEAD APT*  MOCLDY    54  46  76 SW5       29.86S
ASHLAND*       CLOUDY    56  46  69 W3        29.82F
$$

KYZ035-036-041-042-044-050-067-078-099-270600
...CENTRAL KENTUCKY...

CITY           SKY/WX    TMP DP  RH WIND       PRES   REMARKS
MT STERLING*     N/A     52  50  93 SW6       29.86S
FLEMING/MASON*   N/A     54  49  86 S9        29.85S
DANVILLE*        N/A     50  48  93 CALM      29.87S
LEXINGTON        N/A     52  48  86 SW5       29.85F
FRANKFORT        N/A     51  46  83 S5        29.83S
LOUISVILLE       N/A     56  34  43 N3        29.84S
LEBANON*         N/A     52  50  93 CALM      29.85F
GLASGOW*         N/A     48  47  95 W3        29.86F
BOWLING GREEN    N/A     52  52 100 W6        29.87F FOG
$$

KYZ091>093-OHZ055-061-077-WVZ005-015-034-035-042-270600
...SOUTHERN OHIO/WEST VIRGINIA...

CITY           SKY/WX    TMP DP  RH WIND       PRES   REMARKS
COVINGTON        N/A     53  33  46 NW3       29.82F
COLUMBUS       MOCLDY    56  42  59 E6        29.81F
DAYTON           N/A     49  40  71 N5        29.83F
WILMINGTON       N/A     51  41  68 CALM      29.81F
HUNTINGTON     CLOUDY    56  44  64 SW3       29.82F
CHARLESTON     CLOUDY    54  47  77 CALM      29.82F
PINEVILLE*     CLOUDY    51  50  97 MISG      29.86F
BECKLEY        CLOUDY    50  43  77 N9        29.81F
BLUEFIELD      CLOUDY    47  45  93 W5        29.82F
LOGAN CO APT*  CLOUDY    50  50 100 CALM      29.82F
$$

VAZ002-007-008-TNZ017-027-036-066-071-270600
...SOUTHWEST VIRGINIA/EAST TENNESSEE...

CITY           SKY/WX    TMP DP  RH WIND       PRES   REMARKS
WISE*          DRIZZLE   46  46 100 CALM      29.85F
JONESVILLE*    CLOUDY    50  50 100 CALM      29.87S FOG
ABINGDON*      RAIN      52  51  97 CALM      29.82F
BRISTOL        CLOUDY    52  52 100 NW7       29.83F
MORRISTOWN*    CLOUDY    52  52 100 CALM      29.84S
SEVIERVILLE*   CLOUDY    52  52 100 CALM      29.85S
KNOXVILLE      CLOUDY    52  52 100 W3        29.84F FOG
LAFOLLETTE*    CLOUDY    50  50 100 CALM      29.89S FOG
OAK RIDGE      CLOUDY    52  52 100 CALM      29.87F FOG
CROSSVILLE       N/A     46  45  96 W6        29.87S
NASHVILLE      CLOUDY    55  53  93 W3        29.89S FOG
$$

...KEY TO REMARKS...
VSB - VISIBILITY IN MILES
WCI - WIND CHILL INDEX
HX  - HEAT INDEX

$$



USA.gov is the U.S. government's official web portal to all federal, state and local government web resources and services.